Location: Byhalia Creek
(34.8270°N, 89.8040°W)
Time: 20:30:29
(UTC+00:00)

DELTA 2 R/B (1) - Pass Details

Date: 22 April 2026
Orbit: 786 x 800 km, 39.6° (Epoch: 21 May)

Event Time Altitude Azimuth Distance (km) Brightness Sun altitude
Exits shadow 09:15:52 59° 211° (SSW) 899 3.5 -23.5°
Maximum altitude 09:16:47 72° 155° (SSE) 823 3.5 -23.4°
Drops below altitude 10° 09:22:17 10° 71° (ENE) 2,342 7.0 -22.5°
Sets 09:24:46 0° 70° (ENE) 3,274 8.1 -22.0°
